Terminal Aerodrome Forecast
Issued by NWS Newport/Morehead City, NC

Home | Current Version | Previous Version | Graphics & Text | Print | Product List | Glossary On
Versions: 1 2 3 4 5 6 7 8 9 10 11 12 13 14 15 16 17 18 19 20 21
000
FTUS42 KMHX 011136
TAFEWN
TAF
KEWN 011136Z 0112/0212 35005KT P6SM VCSH SCT015 BKN035
     FM011700 01013G20KT P6SM SHRA BKN015
     FM020000 35011KT P6SM SCT015 SCT025 BKN035
     FM020500 34009KT P6SM SKC=

USA.gov is the U.S. government's official web portal to all federal, state and local government web resources and services.